Retour au catalogue

SL-8 DEB *

ActifLEO
NORAD 13499·DEBRIS·🇷🇺 Russia

Lancé Jul 15, 1976 depuis Plesetsk Cosmodrome

Loading…

Prochains Passages (prochaines 24 heures)

TLE

FraisSource: Space-Track

Époque: Sep 14, 2026, 12:40 UTC

1 13499U 76069D   26257.52824331  .00001247  00000-0  24601-3 0  9994
2 13499  74.0526 155.8201 0012277   0.0282  58.3032 14.63530326408977

Suivez SL-8 DEB * en temps réel avec AllMySat

Download on the App Store